Theta_e
308 307 301 306 308 301 297 299 301 303 303 300 298 300 302 304 304 304 313 311 316 315 317 315 314 314 314 314 314 316 316 317 316 317 315 315 315 315 316 314 313 315 316 316 315 314 316 312 314 317 316 313 313 312
308 308 305 305 308 308 303 300 303 304 305 305 301 298 301 304 305 304 309 310 311 314 318 315 315 314 314 313 315 317 317 316 316 316 317 316 317 316 317 316 314 315 314 318 316 316 313 313 314 313 313 312 312 311
307 308 308 306 307 309 308 306 300 303 306 304 303 300 299 303 307 306 307 309 312 312 311 313 316 316 315 314 314 317 316 317 319 319 317 318 318 316 318 317 316 314 315 315 316 315 313 312 312 313 312 313 311 310
305 306 307 307 308 308 305 305 303 306 306 304 304 303 298 302 307 308 310 310 313 313 310 313 315 316 315 315 315 315 316 316 317 316 317 317 318 317 318 317 317 315 315 313 314 314 312 311 311 311 312 310 309 309
304 305 305 307 308 308 305 308 308 308 307 306 306 303 298 302 305 309 312 312 313 314 312 310 312 313 314 315 315 314 315 318 317 318 317 317 316 316 316 316 317 316 316 315 313 313 312 311 311 311 310 310 310 310
304 305 305 306 307 308 306 307 308 307 308 307 306 299 299 302 304 313 318 314 314 313 315 313 315 317 316 315 316 316 316 318 318 316 315 315 317 317 317 318 316 315 314 314 312 313 312 312 310 310 310 310 309 310
304 305 305 305 305 306 307 307 308 306 307 308 306 300 307 305 305 313 314 313 312 313 315 315 315 318 316 316 316 317 315 316 316 316 316 316 316 314 318 323 317 315 315 314 313 313 312 312 310 310 310 310 309 309
305 306 306 305 305 305 305 307 306 305 306 308 306 303 312 308 308 311 313 310 311 314 315 317 316 317 313 315 316 313 316 317 318 317 317 318 317 317 322 318 316 313 313 313 312 312 312 311 311 311 310 311 312 312
306 306 307 307 306 305 306 306 305 304 305 308 306 306 311 313 315 314 309 310 311 315 316 317 318 316 314 315 315 314 314 318 317 319 318 317 320 322 319 317 316 314 313 312 312 311 311 311 312 312 312 313 313 313
306 307 308 308 307 306 306 305 305 306 307 308 304 306 316 312 302 310 314 317 316 316 315 316 316 317 316 316 316 316 315 318 320 319 316 320 320 318 318 317 315 315 313 312 313 312 312 312 312 312 313 313 313 312
306 307 308 308 308 306 306 305 306 306 309 309 310 309 305 305 312 316 317 318 319 320 318 317 318 318 315 316 317 315 317 317 318 319 318 319 320 316 316 315 315 315 313 313 312 312 312 312 312 312 312 312 311 310
306 307 307 308 308 306 307 306 306 306 307 306 304 304 309 318 318 318 318 317 318 317 316 318 318 316 315 315 317 316 317 317 317 316 318 321 318 316 314 314 314 315 314 314 313 313 312 312 312 312 312 312 311 310
306 307 307 308 306 308 308 306 305 305 303 304 306 315 321 317 321 318 312 313 315 316 316 316 317 317 316 315 316 316 317 317 316 318 319 320 316 314 314 314 314 313 313 313 313 312 312 312 312 311 312 312 311 310
307 307 307 308 308 309 308 307 306 305 306 309 310 316 319 319 315 313 314 316 315 316 317 316 317 319 316 316 316 317 316 317 318 319 319 316 316 314 314 314 314 313 312 312 313 313 313 313 312 311 311 312 311 311
307 306 307 307 309 309 309 307 306 305 307 307 310 312 315 317 316 316 316 316 315 316 316 316 316 315 316 316 316 317 317 318 318 320 317 315 316 315 314 314 313 312 312 313 312 312 312 312 312 312 312 311 311 312
306 306 309 307 309 309 308 306 307 308 306 308 308 310 312 315 314 314 314 314 314 314 314 315 316 317 317 317 318 318 316 317 317 316 315 317 317 316 316 314 314 312 312 312 312 312 312 312 312 312 312 311 311 312
306 309 308 308 308 308 307 306 308 311 312 313 316 316 317 316 315 314 314 314 313 314 314 314 316 317 315 316 317 317 318 316 315 316 316 314 314 313 314 313 313 313 313 312 312 312 312 312 311 312 312 312 311 311
307 308 307 308 306 306 308 308 308 309 313 313 314 314 315 315 315 315 314 313 313 313 313 313 315 317 318 316 318 316 314 311 310 311 313 313 313 312 311 312 311 313 312 312 312 312 312 312 311 311 310 310 311 311
306 306 308 308 305 305 308 309 309 311 311 313 313 314 314 314 313 313 313 312 312 312 313 313 314 316 314 312 309 311 311 309 309 308 308 309 310 310 311 311 312 313 312 312 312 312 312 312 311 311 311 311 311 310
307 308 308 307 305 308 310 311 308 310 312 312 311 312 313 313 313 313 314 314 315 315 316 313 308 308 309 310 310 310 310 309 309 308 308 308 307 308 309 310 311 312 312 312 312 312 312 312 311 311 311 310 310 310
307 309 307 306 308 307 309 311 311 311 311 311 311 312 312 313 314 314 315 315 315 311 311 311 310 311 310 310 309 310 308 307 308 308 308 309 307 308 308 309 309 310 311 312 312 311 311 312 311 312 311 310 310 309
308 306 306 307 308 309 310 310 311 311 311 313 313 312 313 313 313 314 314 315 311 311 311 311 311 311 311 310 307 306 304 304 305 306 306 307 308 306 305 306 309 310 310 311 311 312 311 311 311 311 312 311 310 310
306 306 308 307 309 309 310 310 312 312 313 313 312 312 312 313 313 313 316 311 310 310 310 309 309 308 307 305 304 303 301 299 301 303 304 305 306 307 308 307 308 309 310 310 310 311 311 311 311 310 311 310 311 311
306 307 309 310 310 310 312 314 311 311 312 312 312 313 313 314 314 316 314 310 310 310 309 308 307 306 304 303 302 299 297 297 297 297 300 304 302 303 307 307 308 308 307 308 309 310 311 311 310 310 311 311 310 310
308 307 308 305 310 312 314 314 313 313 312 312 313 313 314 315 315 316 313 311 311 311 309 308 306 303 303 301 298 297 297 297 297 298 300 299 300 302 302 303 304 304 302 306 306 307 307 309 310 310 310 310 308 306
310 310 307 312 312 312 313 313 310 310 312 312 313 314 315 315 316 315 314 312 311 309 306 305 304 302 301 298 297 298 298 297 297 298 298 299 300 300 301 300 299 299 299 301 302 304 306 306 306 305 304 302 300 297
308 312 312 309 311 312 312 313 313 313 313 314 314 315 316 315 315 314 313 310 309 306 304 303 301 300 299 298 298 297 296 296 297 297 298 298 298 299 299 298 297 295 297 298 301 304 303 301 299 297 296 295 294 294
309 311 312 311 311 311 312 313 313 313 314 313 314 315 315 315 316 315 312 309 307 304 304 302 300 299 299 298 297 297 296 296 297 297 298 298 299 297 297 297 297 296 294 297 297 298 298 297 297 296 296 295 295 294
309 309 309 310 310 311 312 312 313 313 313 314 314 314 315 315 314 310 308 307 304 304 304 301 300 299 297 297 297 297 297 294 295 297 298 298 297 297 296 295 295 294 294 294 294 294 295 294 294 294 293 293 293 293
308 309 309 310 311 313 313 313 314 313 312 313 313 314 315 312 309 308 307 306 306 305 302 301 300 298 297 297 297 296 295 296 295 295 296 297 297 296 295 294 293 294 293 293 294 294 295 294 293 293 292 292 293 293
309 308 308 310 312 313 313 312 312 312 312 313 314 314 315 312 308 306 307 306 304 302 301 300 298 297 297 297 296 296 295 294 295 295 295 295 295 295 294 294 295 295 294 295 294 294 294 293 293 292 292 291 290 290
310 310 311 312 313 313 313 314 314 315 314 314 314 313 310 312 312 307 305 305 304 303 299 299 298 297 296 295 295 294 292 292 292 292 293 293 293 293 293 293 292 292 292 292 291 291 291 291 291 290 290 290 289 289
311 311 311 312 312 314 314 314 314 314 314 314 314 314 313 313 314 310 305 304 304 303 300 299 297 296 295 294 294 293 293 291 290 290 290 290 290 291 292 291 291 291 291 290 290 290 290 289 289 289 289 288 288 288
Wind_Speed
29 32 32 33 35 32 26 25 29 32 33 30 26 22 18 16 14 11 4 7 5 3 5 7 6 4 4 3 4 3 5 4 3 4 3 3 3 4 5 7 7 5 5 4 5 2 2 11 4 4 3 2 3 5
28 30 32 32 33 34 29 25 27 32 36 33 27 23 18 15 12 10 5 6 5 6 5 5 10 9 7 3 4 3 3 2 3 5 2 2 5 3 6 5 2 3 4 5 2 3 2 3 3 2 2 2 3 4
28 30 32 33 33 35 35 29 26 32 40 36 29 24 18 14 11 8 6 6 4 4 6 7 9 13 13 12 7 4 4 1 3 3 6 4 5 4 6 6 5 3 4 6 4 5 6 3 3 3 4 4 2 3
28 30 31 33 35 37 36 32 30 37 40 37 34 27 18 13 10 8 5 4 4 5 4 2 2 5 7 12 14 14 9 2 0 4 6 6 7 4 7 6 9 7 3 7 8 8 4 8 6 4 5 3 2 3
28 30 31 33 34 36 32 34 38 41 41 41 38 27 16 10 8 8 7 5 4 5 4 4 3 9 8 11 12 11 10 7 5 4 5 9 7 4 8 6 9 7 8 5 5 2 5 1 5 8 7 6 5 5
28 30 32 33 34 35 33 34 41 44 45 44 38 24 15 10 6 3 4 5 5 2 3 3 2 5 8 9 10 12 10 6 5 5 8 5 1 5 5 9 11 6 9 8 7 1 6 2 5 9 8 6 7 6
28 30 32 34 35 36 37 34 40 47 46 45 33 26 15 7 8 5 3 3 4 3 3 4 3 4 5 5 4 5 5 4 5 6 6 8 5 4 6 10 13 6 7 8 6 5 7 9 7 9 9 7 7 9
28 31 33 35 36 39 39 32 42 47 46 42 30 17 8 4 6 4 3 1 4 4 4 3 3 3 5 4 4 2 4 4 5 4 2 5 3 4 4 9 5 3 5 7 7 9 4 4 8 7 8 8 8 9
29 31 33 36 38 41 36 31 47 49 45 33 26 7 1 1 3 2 9 7 7 5 3 3 4 3 3 3 2 3 3 4 2 4 3 2 4 5 9 7 5 4 7 8 9 10 10 9 9 8 9 9 9 8
29 31 34 37 40 41 26 43 50 48 40 21 7 4 2 2 11 3 1 4 4 4 4 6 4 7 2 2 4 3 2 3 3 2 2 4 4 13 9 8 8 9 9 10 10 12 12 12 10 10 9 9 9 8
30 32 34 37 40 32 31 47 47 46 18 11 8 3 9 12 3 4 3 4 3 4 4 4 5 7 3 5 6 0 3 2 3 3 3 3 3 6 7 7 7 7 8 12 13 13 12 11 10 8 8 10 10 10
30 33 35 37 36 25 44 45 45 29 16 12 15 11 7 3 2 3 2 1 4 3 2 4 2 3 1 2 3 3 3 2 4 1 3 3 4 6 6 7 7 7 8 9 13 15 19 19 16 12 10 10 11 12
30 33 35 38 23 39 43 46 44 39 17 1 2 3 2 0 2 2 2 2 3 2 1 4 5 2 3 2 2 3 5 4 1 3 3 5 3 5 6 6 7 7 8 11 13 15 14 15 18 12 13 13 13 14
31 34 35 29 27 42 44 44 45 23 0 3 3 6 2 1 2 3 5 7 6 6 8 7 6 3 2 2 2 5 3 2 4 4 5 4 7 6 6 7 8 10 11 11 11 13 13 14 15 18 20 19 16 16
31 35 30 12 39 42 43 41 38 4 3 3 2 2 2 3 6 7 6 6 8 6 7 6 4 4 3 3 3 4 4 5 4 4 4 6 4 7 7 9 10 9 9 9 12 13 14 15 15 18 20 14 18 17
31 29 8 33 42 43 40 40 6 2 3 3 3 4 3 6 8 8 8 9 8 5 5 4 5 3 4 2 3 6 4 4 3 5 5 7 12 15 15 13 12 12 11 10 12 12 13 15 14 17 19 22 21 18
27 8 27 39 43 38 36 7 2 3 3 3 3 4 6 7 8 8 8 8 8 5 5 4 5 3 2 3 3 2 4 5 7 10 12 15 14 15 13 16 18 14 13 10 11 12 14 15 17 16 12 12 14 15
13 23 33 36 32 30 8 3 3 3 4 4 4 3 4 6 8 8 6 4 3 2 3 2 5 4 4 3 2 4 7 9 9 11 12 14 11 14 15 14 16 15 12 8 10 11 12 9 8 11 16 11 11 13
26 31 32 25 19 10 5 2 3 4 3 4 5 5 4 7 7 9 6 5 3 4 3 2 3 3 5 5 10 10 7 8 8 10 11 19 19 13 13 13 12 14 11 9 10 11 7 6 8 6 5 5 8 12
26 29 18 20 15 4 4 3 2 4 4 4 5 5 5 6 6 6 4 3 3 1 5 3 2 4 5 7 7 9 9 8 5 8 10 8 15 16 15 13 10 11 12 9 8 8 9 10 12 10 11 14 8 8
18 9 21 12 4 6 5 3 3 3 5 4 6 5 5 4 5 6 4 3 4 3 2 1 3 5 12 13 15 16 15 16 9 8 10 9 13 14 17 16 16 14 13 9 6 5 8 10 12 11 10 15 14 6
9 14 7 4 4 3 4 5 4 5 3 5 5 3 5 5 6 4 1 5 2 2 2 4 6 9 11 11 12 15 19 23 19 18 19 20 7 5 9 17 14 8 14 7 6 6 6 8 8 8 12 14 13 15
10 5 4 3 3 2 5 3 3 3 3 3 4 4 4 4 3 1 4 3 1 3 6 7 12 16 15 17 17 19 23 25 19 19 18 18 20 16 10 11 16 13 12 14 12 10 9 8 6 7 5 7 7 8
6 3 3 3 4 4 3 3 3 3 3 3 4 9 6 4 4 3 3 0 3 6 6 13 14 10 14 15 13 16 19 20 19 19 21 18 15 18 16 15 12 12 14 13 13 13 11 9 7 7 6 6 5 1
4 3 3 5 4 3 4 3 3 3 3 6 9 4 3 3 2 3 1 1 3 3 5 11 13 10 7 8 14 16 19 19 17 14 17 19 20 17 19 20 19 23 22 17 13 14 14 16 7 6 2 2 11 15
4 5 5 3 3 4 2 3 3 3 7 4 3 3 3 3 2 0 2 1 3 3 6 7 7 6 7 11 11 14 19 20 17 14 14 21 18 15 13 10 10 17 22 18 16 13 10 14 12 14 20 22 21 23
4 5 5 3 3 4 5 5 6 5 5 3 2 3 2 2 0 2 1 2 1 2 3 5 7 7 8 10 13 17 17 15 13 10 12 15 20 21 19 16 16 20 22 20 23 19 19 24 25 24 25 23 18 22
6 4 8 4 5 5 6 5 3 3 3 2 2 2 2 2 3 1 2 4 2 2 1 2 2 4 7 8 9 13 17 15 12 12 9 16 18 22 21 21 21 23 27 23 26 26 27 26 25 25 24 22 21 23
5 5 4 10 8 5 5 5 4 3 3 3 3 4 3 2 2 4 5 5 5 3 1 2 4 4 5 6 9 10 13 16 16 11 13 8 11 19 21 21 21 21 21 27 31 31 31 30 28 27 25 25 25 23
6 7 5 5 5 6 5 6 5 5 4 6 6 3 3 3 3 5 7 7 5 3 1 2 3 4 6 6 7 11 13 13 13 11 5 8 12 15 16 17 19 18 17 20 21 22 23 24 25 25 24 21 20 20
4 7 5 6 4 5 7 8 9 9 8 7 6 7 6 3 5 6 8 7 6 5 5 4 4 4 5 6 7 7 10 13 12 11 10 10 10 11 12 12 13 14 15 16 17 18 19 20 20 20 20 20 19 19
8 10 5 5 4 3 3 5 6 6 5 5 5 2 2 4 4 7 9 11 9 8 5 5 6 6 5 6 7 8 8 10 12 12 11 11 12 13 13 14 14 15 16 17 17 17 18 18 17 18 18 18 18 17
8 7 8 6 4 4 4 3 3 3 4 3 4 5 5 4 3 4 9 12 9 8 9 9 9 8 8 7 7 7 8 9 11 13 14 13 13 12 12 12 13 13 14 15 16 16 16 16 16 15 15 14 14 13
Wind_Direction
14 14 13 13 14 13 14 12 11 10 7 2 357 353 350 352 354 358 304 356 319 288 153 208 188 186 183 242 307 74 225 167 306 332 331 26 301 17 277 319 322 313 332 5 324 347 288 10 342 10 34 107 330 3
9 9 9 9 9 9 4 359 1 4 3 359 353 346 341 337 342 345 287 317 319 265 22 216 231 235 241 272 294 171 4 287 3 306 308 304 287 220 298 310 181 293 337 309 283 278 6 311 341 106 323 336 9 357
4 4 4 3 2 1 359 354 348 353 354 354 352 343 331 323 325 326 298 293 288 269 228 222 224 221 223 228 225 282 167 56 205 312 315 299 280 276 286 290 288 212 198 255 298 162 245 239 211 222 224 286 333 55
0 360 360 360 359 358 359 2 357 350 351 351 349 340 326 310 308 310 275 273 270 295 281 149 161 211 211 211 216 231 281 126 197 236 266 275 270 244 278 288 280 294 168 270 267 249 235 219 228 210 189 218 191 151
356 356 356 357 357 357 358 358 355 352 351 348 345 338 325 303 291 300 273 237 234 303 319 305 260 234 222 210 216 215 221 229 231 235 245 268 266 291 263 292 271 246 258 261 288 49 257 201 206 197 207 197 188 183
352 353 353 354 353 352 349 349 352 351 350 345 343 337 322 295 271 260 216 203 210 244 288 285 74 205 192 208 219 221 224 231 247 264 286 269 73 265 265 272 288 252 248 254 264 306 270 230 217 202 208 206 201 219
349 349 350 350 349 347 346 341 345 347 346 344 342 335 324 267 203 246 359 94 190 221 256 274 241 145 203 206 212 211 205 227 253 262 260 269 232 209 267 269 287 277 243 231 239 247 231 215 205 200 207 209 210 247
346 346 347 347 346 344 342 341 343 342 343 342 338 340 356 149 169 208 223 59 183 258 249 267 257 232 178 230 243 191 227 214 204 274 228 244 142 234 251 243 257 270 248 212 217 210 286 185 207 215 222 241 251 251
342 343 344 344 345 343 344 344 342 339 340 339 334 328 25 110 206 67 289 276 212 268 285 237 270 313 167 242 281 203 258 252 97 246 225 240 229 223 241 254 260 246 222 220 205 202 210 219 228 236 237 244 254 263
337 338 341 342 343 342 342 344 339 341 344 340 343 279 193 59 326 307 212 194 195 195 224 256 277 268 253 286 298 291 197 261 261 171 140 233 245 239 250 256 269 257 239 221 216 212 221 230 239 244 237 244 254 257
333 335 339 340 342 344 343 343 344 347 354 353 339 318 319 314 254 221 236 234 160 228 206 247 273 279 129 287 312 296 297 270 266 126 254 227 250 211 189 229 243 236 234 231 234 245 238 247 236 250 243 237 241 227
330 332 336 338 340 343 342 342 341 345 325 301 288 299 294 256 220 259 251 206 232 290 170 276 333 276 108 267 268 177 256 236 256 88 253 255 247 183 199 234 241 240 244 249 252 253 253 243 248 253 250 250 231 224
328 329 333 335 333 341 337 338 335 336 322 162 217 250 297 173 3 269 291 248 271 300 341 305 281 253 168 214 278 271 236 232 121 232 249 230 154 199 228 236 238 232 255 267 268 264 259 252 235 234 264 241 236 222
325 326 331 332 335 336 336 334 332 339 279 273 314 327 302 282 263 285 299 306 313 295 312 311 288 263 141 175 232 256 280 250 238 230 239 260 203 233 238 238 249 254 259 260 265 267 263 255 240 221 224 252 228 225
322 325 331 321 335 333 333 331 331 319 270 273 271 265 249 315 289 292 303 292 292 293 302 289 249 244 184 184 237 253 249 248 232 229 249 359 279 288 286 265 253 250 257 267 268 266 261 260 255 247 229 235 235 233
323 330 318 329 333 332 334 327 324 252 243 250 235 260 260 283 308 321 314 311 327 315 298 256 259 265 239 192 230 218 247 240 280 294 333 340 342 329 313 296 277 268 264 270 275 265 267 263 256 249 232 217 235 232
323 298 315 333 332 332 333 326 289 244 267 239 234 246 279 294 298 307 315 317 342 296 291 294 262 242 111 244 261 266 238 312 329 320 312 312 304 306 297 297 277 263 256 266 266 269 273 276 274 245 220 214 230 224
300 310 326 331 330 340 305 301 288 282 265 257 270 326 307 290 293 304 310 333 297 308 306 278 304 244 237 237 253 340 340 330 316 305 295 290 289 281 278 275 264 255 248 255 259 270 283 269 245 219 224 259 252 233
305 314 321 327 331 326 300 295 303 284 281 311 290 286 294 300 293 291 303 317 269 307 305 4 296 344 353 354 328 320 324 327 322 329 320 316 297 293 292 292 266 251 241 250 259 265 271 244 254 207 185 253 235 242
311 313 317 325 321 268 271 242 280 276 286 335 286 287 300 294 302 310 328 21 348 8 43 43 360 291 291 301 321 324 321 317 308 324 323 325 341 338 344 333 324 308 277 258 256 250 257 255 250 233 230 221 228 258
320 303 319 324 266 232 279 298 256 264 303 284 309 310 297 296 296 342 30 15 60 39 342 267 295 313 316 318 329 333 5 351 354 336 336 327 327 331 350 354 345 318 297 294 279 276 229 260 264 253 233 216 236 226
282 305 300 286 265 247 264 241 280 313 274 288 300 277 282 305 342 31 80 57 50 327 312 317 340 330 343 353 8 7 356 353 345 342 342 334 334 12 344 330 325 316 303 314 319 321 309 300 298 253 248 239 225 231
295 297 259 250 267 240 265 252 259 241 267 288 299 284 298 319 14 267 84 67 269 282 332 328 331 328 351 355 348 1 2 349 338 338 338 341 344 345 329 342 345 347 359 3 351 335 330 330 297 267 257 239 217 217
280 253 254 253 228 263 279 242 225 259 262 261 289 303 313 346 325 64 77 217 306 354 1 346 347 357 352 351 360 354 350 343 342 342 335 3 348 341 346 355 354 6 4 358 358 345 332 311 296 265 246 241 251 119
267 251 183 263 244 246 248 248 239 249 264 307 309 275 341 318 321 75 65 307 311 358 347 343 356 7 350 348 351 350 353 346 340 338 348 352 345 355 3 5 4 7 7 344 1 352 349 341 347 356 334 57 98 92
251 211 196 236 220 232 255 266 243 292 302 288 266 314 310 317 31 153 243 299 328 358 341 350 355 350 360 1 347 352 349 346 346 349 352 352 2 357 7 3 358 359 15 8 356 350 10 20 44 73 80 71 86 98
244 250 204 226 275 271 270 258 267 272 264 253 270 309 317 296 43 240 176 166 269 218 309 345 3 357 354 353 3 0 357 353 355 348 23 23 20 23 24 20 17 6 15 18 17 36 70 69 67 66 71 75 78 95
235 272 241 243 232 252 271 273 256 241 236 220 248 248 268 197 236 117 162 175 179 188 304 9 352 346 2 10 11 7 11 10 18 49 36 28 33 28 26 29 30 31 36 49 54 61 72 77 81 82 83 88 88 91
228 226 253 255 255 247 235 230 239 230 231 224 263 280 246 203 117 147 170 181 172 193 260 13 36 24 19 31 30 31 27 22 16 23 25 19 9 15 21 30 42 49 50 56 70 80 82 79 77 78 79 83 88 89
233 208 225 234 226 226 227 205 234 246 245 271 292 269 216 147 173 176 171 181 198 203 143 87 65 48 37 23 38 42 39 36 32 24 3 15 23 22 27 35 42 50 60 68 68 70 73 76 80 82 82 83 87 89
190 183 212 238 251 249 252 252 258 263 264 263 252 258 289 119 170 204 207 196 184 175 171 142 113 79 65 51 40 37 43 33 33 32 33 36 37 39 40 43 50 58 63 66 69 72 78 80 81 82 82 84 84 85
195 199 211 233 253 249 247 249 256 253 245 232 224 202 187 204 230 184 200 190 187 177 159 158 147 118 99 87 79 75 59 48 43 40 45 50 54 56 58 61 63 67 70 72 74 76 78 81 83 85 85 84 83 82
209 212 223 258 256 242 192 224 231 252 230 240 229 216 207 233 252 141 178 188 191 177 169 158 146 136 123 104 98 97 85 73 64 60 61 64 77 72 66 65 67 70 73 74 75 76 77 79 80 80 81 81 80 78